Tracking 34401 objects as of 17-Jun-2026
HD Live streaming from Space Station
objects crossing your sky now

THORAD AGENA D DEB

Track THORAD AGENA D DEB now!
10-day predictions


NORAD ID: 4677
Int'l Code: 1970-025BA
Perigee: 1,040.9 km
Apogee: 1,055.8 km
Inclination: 100.0 °
Period: 106.0 minutes
Semi major axis: 7419 km
RCS: 0.0681 m2 (small)
Launch date: April 8, 1970
Source: United States (US)
Launch site: AIR FORCE WESTERN TEST RANGE (AFWTR)

Note: This is SATELLITE DEBRIS
Your satellite tracking list
Your tracking list is empty




NASA's NSSDC Master Catalog

Two Line Element Set (TLE):
1 04677U 70025BA  26168.30600860  .00000061  00000-0  14745-3 0  9995
2 04677  99.9887 288.6411 0010088 149.1803 266.7336 13.58485197778577
Source of the keplerian elements: AFSPC